Voltar ao catálogo

STARLINK-32690

AtivoComunicaçõesVLEO
NORAD 62453·PAYLOAD·🇺🇸 United States

Lançado Dec 29, 2024 de Vandenberg Space Force Base

Loading…

Próximas Passagens (próximas 24 horas)

TLE

AtualizadoSource: CelesTrak SupGP

Época: Sep 15, 2026, 03:09 UTC

1 62453C 24251X   26258.13173611 -.00009405  00000+0 -27789-3 0  2583
2 62453  53.1578 172.7471 0001320  77.4977 142.2100 15.34392868    17

Acompanhe STARLINK-32690 em tempo real com AllMySat

Download on the App Store